Location: Bacharowice
(49.9333°N, 19.5833°E)
Time: 11:33:07
(UTC+00:00)

SOZ - Visible Passes

Search period start: 28 September 2021 00:00
Search period end: 08 October 2021 00:00
Orbit: 305 x 16695 km, 52.0° (Epoch: 27 September)

Date Brightness Start Highest point End Pass type
(mag) Time Alt. Az. Time Alt. Az. Time Alt. Az.
28 Sep 9.2 02:02:55 16° SW 02:53:06 74° SSE 03:02:39 10° ENE visible
28 Sep 10.9 22:10:23 21° SE 22:37:15 27° ESE 22:56:23 10° ENE visible
29 Sep 8.6 03:14:52 10° WSW 04:02:18 89° SSE 04:09:38 10° ENE visible
29 Sep 10.6 23:19:01 28° SSE 23:48:33 41° SE 00:05:37 10° ENE visible
01 Oct 10.0 00:27:07 30° SSW 00:59:42 55° SE 01:13:24 10° ENE visible
01 Oct 11.2 20:33:18 11° ESE 20:43:49 12° ESE 20:55:56 10° E visible
02 Oct 9.4 01:34:46 27° SW 02:09:55 71° SSE 02:20:33 10° ENE visible
02 Oct 10.9 21:40:36 23° SE 21:53:17 25° ESE 22:13:11 10° ENE visible
03 Oct 8.8 02:42:04 19° WSW 03:19:14 86° SSE 03:27:24 10° ENE visible
03 Oct 10.7 21:46:26 10° S 23:04:15 38° SE 23:22:47 10° ENE visible
04 Oct 8.2 03:51:29 10° WSW 04:27:51 82° N 04:34:07 10° E visible
04 Oct 10.2 22:49:27 10° S 00:15:27 53° SE 00:30:37 10° ENE visible
06 Oct 9.6 01:00:56 37° SSW 01:25:52 68° SSE 01:37:42 10° ENE visible
06 Oct 10.9 21:06:01 22° ESE 21:08:37 22° ESE 21:28:58 10° ENE visible
07 Oct 8.9 02:07:17 28° SW 02:35:18 83° SSE 02:44:27 10° ENE visible
07 Oct 10.7 21:01:58 10° SSE 22:19:08 36° SE 22:39:07 10° ENE visible
